| time (UTC) | temp F | wind direction | speed knots | gust knots | rain 1hr in | rain 24hr in | rain mn in | humidity % | barometer mb |
| 20260507003331 | 77 | 220 | 1.7 | 2.6 | 0.00 | 0.00 | 0.00 | 67 | 1015.6 |
| 20260507002826 | 77 | 249 | 0.9 | 3.5 | 0.00 | 0.00 | 0.00 | 67 | 1015.3 |
| 20260507002322 | 77 | 312 | 0.9 | 3.5 | 0.00 | 0.00 | 0.00 | 67 | 1015.4 |
| 20260507001820 | 78 | 306 | 1.7 | 2.6 | 0.00 | 0.00 | 0.00 | 67 | 1015.3 |
| 20260507001317 | 78 | 299 | 0.0 | 2.6 | 0.00 | 0.00 | 0.00 | 67 | 1015.1 |
| 20260507000813 | 78 | 39 | 0.0 | 2.6 | 0.00 | 0.00 | 0.00 | 67 | 1015.3 |
| 20260507000309 | 78 | 114 | 0.0 | 2.6 | 0.00 | 0.00 | 0.00 | 67 | 1015.2 |
| 20260506235806 | 78 | 5 | 0.9 | 2.6 | 0.00 | 0.00 | 0.00 | 67 | 1015.0 |
| 20260506235306 | 78 | 166 | 1.7 | 3.5 | 0.00 | 0.00 | 0.00 | 67 | 1014.9 |
| 20260506234753 | 79 | 2 | 0.0 | 2.6 | 0.00 | 0.00 | 0.00 | 67 | 1014.8 |
| 20260506234250 | 79 | 196 | 0.9 | 3.5 | 0.00 | 0.00 | 0.00 | 67 | 1014.9 |
| 20260506233748 | 79 | 336 | 1.7 | 5.2 | 0.00 | 0.00 | 0.00 | 67 | 1014.9 |
| 20260506233244 | 80 | 254 | 0.0 | 3.5 | 0.00 | 0.00 | 0.00 | 66 | 1014.9 |
| 20260506232741 | 80 | 25 | 0.9 | 3.5 | 0.00 | 0.00 | 0.00 | 65 | 1014.9 |
| 20260506232236 | 80 | 293 | 0.9 | 4.3 | 0.00 | 0.00 | 0.00 | 64 | 1014.8 |
| 20260506231733 | 81 | 33 | 0.0 | 4.3 | 0.00 | 0.00 | 0.00 | 64 | 1014.9 |
| 20260506231232 | 81 | 43 | 0.9 | 2.6 | 0.00 | 0.00 | 0.00 | 64 | 1014.8 |
| 20260506230729 | 82 | 111 | 0.0 | 4.3 | 0.00 | 0.00 | 0.00 | 63 | 1014.5 |
| 20260506230225 | 82 | 241 | 0.0 | 3.5 | 0.00 | 0.00 | 0.00 | 63 | 1014.7 |
| 20260506225721 | 82 | 355 | 0.0 | 3.5 | 0.00 | 0.00 | 0.00 | 62 | 1014.6 |
| 20260506225218 | 82 | 292 | 1.7 | 4.3 | 0.00 | 0.00 | 0.00 | 62 | 1014.7 |
| 20260506224715 | 82 | 331 | 1.7 | 3.5 | 0.00 | 0.00 | 0.00 | 62 | 1014.8 |
| 20260506224212 | 83 | 45 | 1.7 | 6.1 | 0.00 | 0.00 | 0.00 | 62 | 1014.9 |
| 20260506223709 | 84 | 34 | 0.0 | 2.6 | 0.00 | 0.00 | 0.00 | 60 | 1014.9 |
| 20260506223204 | 86 | 121 | 0.9 | 7.0 | 0.00 | 0.00 | 0.00 | 59 | 1014.8 |
| 20260506222701 | 87 | 29 | 0.0 | 2.6 | 0.00 | 0.00 | 0.00 | 58 | 1015.0 |
| 20260506222156 | 86 | 37 | 2.6 | 7.8 | 0.00 | 0.00 | 0.00 | 58 | 1015.0 |
| 20260506221650 | 87 | 331 | 1.7 | 3.5 | 0.00 | 0.00 | 0.00 | 57 | 1014.9 |
| 20260506221148 | 88 | 38 | 4.3 | 6.1 | 0.00 | 0.00 | 0.00 | 56 | 1014.8 |
| 20260506220644 | 87 | 271 | 1.7 | 2.6 | 0.00 | 0.00 | 0.00 | 57 | 1014.9 |
| 20260506220139 | 87 | 10 | 1.7 | 6.1 | 0.00 | 0.00 | 0.00 | 58 | 1014.9 |
| 20260506215636 | 88 | 31 | 2.6 | 6.1 | 0.00 | 0.00 | 0.00 | 57 | 1014.8 |
| 20260506215131 | 87 | 235 | 3.5 | 6.1 | 0.00 | 0.00 | 0.00 | 58 | 1014.8 |
| 20260506214628 | 91 | 293 | 1.7 | 2.6 | 0.00 | 0.00 | 0.00 | 53 | 1014.7 |
| 20260506214125 | 90 | 313 | 2.6 | 3.5 | 0.00 | 0.00 | 0.00 | 54 | 1014.8 |
| 20260506213624 | 89 | 246 | 0.9 | 4.3 | 0.00 | 0.00 | 0.00 | 55 | 1014.6 |
| 20260506213121 | 90 | 54 | 3.5 | 5.2 | 0.00 | 0.00 | 0.00 | 53 | 1014.7 |
| 20260506212618 | 90 | 335 | 0.0 | 7.0 | 0.00 | 0.00 | 0.00 | 54 | 1014.6 |
| 20260506212113 | 90 | 24 | 0.9 | 5.2 | 0.00 | 0.00 | 0.00 | 54 | 1014.5 |
| 20260506211608 | 89 | 47 | 1.7 | 6.1 | 0.00 | 0.00 | 0.00 | 55 | 1014.8 |
| 20260506211106 | 89 | 357 | 1.7 | 5.2 | 0.00 | 0.00 | 0.00 | 55 | 1014.7 |
| 20260506210602 | 89 | 242 | 1.7 | 6.1 | 0.00 | 0.00 | 0.00 | 55 | 1014.9 |
| 20260506210059 | 89 | 153 | 2.6 | 5.2 | 0.00 | 0.00 | 0.00 | 55 | 1014.8 |
| 20260506205556 | 88 | 47 | 1.7 | 4.3 | 0.00 | 0.00 | 0.00 | 56 | 1014.8 |
| 20260506205051 | 90 | 322 | 2.6 | 5.2 | 0.00 | 0.00 | 0.00 | 53 | 1014.9 |
| 20260506204549 | 90 | 213 | 0.9 | 6.1 | 0.00 | 0.00 | 0.00 | 54 | 1014.8 |
| 20260506204046 | 91 | 79 | 0.0 | 5.2 | 0.00 | 0.00 | 0.00 | 53 | 1014.9 |
| 20260506203544 | 90 | 303 | 2.6 | 5.2 | 0.00 | 0.00 | 0.00 | 52 | 1015.0 |
| 20260506203040 | 89 | 78 | 3.5 | 9.6 | 0.00 | 0.00 | 0.00 | 52 | 1014.9 |
| 20260506202538 | 90 | 233 | 2.6 | 8.7 | 0.00 | 0.00 | 0.00 | 52 | 1014.7 |
| 20260506202034 | 89 | 43 | 3.5 | 5.2 | 0.00 | 0.00 | 0.00 | 54 | 1014.9 |
| 20260506201532 | 90 | 298 | 1.7 | 4.3 | 0.00 | 0.00 | 0.00 | 51 | 1014.9 |
| 20260506201028 | 91 | 15 | 1.7 | 4.3 | 0.00 | 0.00 | 0.00 | 51 | 1015.1 |
| 20260506200524 | 91 | 207 | 1.7 | 5.2 | 0.00 | 0.00 | 0.00 | 50 | 1015.0 |
| 20260506200021 | 93 | 1 | 0.0 | 5.2 | 0.00 | 0.00 | 0.00 | 48 | 1015.1 |
| 20260506195518 | 93 | 276 | 2.6 | 5.2 | 0.00 | 0.00 | 0.00 | 39 | 1015.3 |
| 20260506195014 | 94 | 229 | 1.7 | 4.3 | 0.00 | 0.00 | 0.00 | 38 | 1015.2 |
| 20260506194512 | 93 | 251 | 1.7 | 5.2 | 0.00 | 0.00 | 0.00 | 42 | 1015.3 |
| 20260506194008 | 94 | 226 | 0.9 | 5.2 | 0.00 | 0.00 | 0.00 | 38 | 1015.4 |
| 20260506193505 | 91 | 235 | 7.0 | 7.8 | 0.00 | 0.00 | 0.00 | 39 | 1015.3 |
| 20260506192956 | 92 | 243 | 4.3 | 7.8 | 0.00 | 0.00 | 0.00 | 37 | 1015.3 |
| 20260506192454 | 93 | 243 | 1.7 | 4.3 | 0.00 | 0.00 | 0.00 | 38 | 1015.6 |
| 20260506191949 | 92 | 318 | 0.0 | 5.2 | 0.00 | 0.00 | 0.00 | 41 | 1015.6 |
| 20260506191447 | 93 | 210 | 1.7 | 8.7 | 0.00 | 0.00 | 0.00 | 41 | 1015.7 |
| 20260506190942 | 94 | 315 | 0.9 | 2.6 | 0.00 | 0.00 | 0.00 | 39 | 1015.9 |
| 20260506190439 | 92 | 253 | 2.6 | 5.2 | 0.00 | 0.00 | 0.00 | 39 | 1015.8 |
| 20260506185931 | 94 | 244 | 3.5 | 4.3 | 0.00 | 0.00 | 0.00 | 38 | 1016.1 |
| 20260506185428 | 93 | 98 | 2.6 | 3.5 | 0.00 | 0.00 | 0.00 | 39 | 1015.8 |
| 20260506184925 | 93 | 256 | 1.7 | 4.3 | 0.00 | 0.00 | 0.00 | 40 | 1015.9 |
| 20260506184422 | 93 | 229 | 1.7 | 3.5 | 0.00 | 0.00 | 0.00 | 47 | 1016.0 |
| 20260506183919 | 91 | 202 | 0.0 | 3.5 | 0.00 | 0.00 | 0.00 | 44 | 1016.0 |
| 20260506183414 | 90 | 211 | 1.7 | 5.2 | 0.00 | 0.00 | 0.00 | 47 | 1016.0 |
| 20260506182912 | 92 | 199 | 2.6 | 5.2 | 0.00 | 0.00 | 0.00 | 41 | 1016.1 |
| 20260506182409 | 93 | 259 | 0.0 | 3.5 | 0.00 | 0.00 | 0.00 | 46 | 1016.2 |
| 20260506181907 | 91 | 330 | 0.0 | 3.5 | 0.00 | 0.00 | 0.00 | 45 | 1016.2 |
| 20260506181404 | 91 | 19 | 0.0 | 4.3 | 0.00 | 0.00 | 0.00 | 43 | 1016.4 |
| 20260506180901 | 91 | 250 | 1.7 | 6.1 | 0.00 | 0.00 | 0.00 | 43 | 1016.4 |
| 20260506180357 | 91 | 296 | 0.9 | 3.5 | 0.00 | 0.00 | 0.00 | 47 | 1016.5 |
| 20260506175854 | 89 | 272 | 1.7 | 7.0 | 0.00 | 0.00 | 0.00 | 46 | 1016.5 |
| 20260506175350 | 90 | 256 | 4.3 | 8.7 | 0.00 | 0.00 | 0.00 | 44 | 1016.6 |
| 20260506174847 | 91 | 59 | 0.0 | 2.6 | 0.00 | 0.00 | 0.00 | 46 | 1016.5 |
| 20260506174344 | 89 | 242 | 4.3 | 7.0 | 0.00 | 0.00 | 0.00 | 47 | 1016.7 |
| 20260506173842 | 90 | 244 | 4.3 | 6.1 | 0.00 | 0.00 | 0.00 | 45 | 1016.8 |
| 20260506173338 | 90 | 330 | 0.9 | 4.3 | 0.00 | 0.00 | 0.00 | 45 | 1016.7 |
| 20260506172836 | 90 | 244 | 3.5 | 5.2 | 0.00 | 0.00 | 0.00 | 47 | 1016.9 |
| 20260506172333 | 88 | 270 | 2.6 | 8.7 | 0.00 | 0.00 | 0.00 | 48 | 1016.8 |
| 20260506171830 | 89 | 225 | 4.3 | 7.8 | 0.00 | 0.00 | 0.00 | 50 | 1017.1 |
| 20260506171327 | 88 | 243 | 1.7 | 7.0 | 0.00 | 0.00 | 0.00 | 49 | 1017.1 |
| 20260506170824 | 89 | 269 | 2.6 | 4.3 | 0.00 | 0.00 | 0.00 | 48 | 1017.0 |
| 20260506170320 | 89 | 45 | 0.0 | 4.3 | 0.00 | 0.00 | 0.00 | 49 | 1017.0 |
| 20260506165819 | 87 | 193 | 2.6 | 7.0 | 0.00 | 0.00 | 0.00 | 51 | 1017.1 |
| 20260506165316 | 87 | 236 | 2.6 | 6.1 | 0.00 | 0.00 | 0.00 | 49 | 1017.2 |
| 20260506164813 | 87 | 238 | 7.8 | 10.4 | 0.00 | 0.00 | 0.00 | 48 | 1017.3 |
| 20260506164310 | 87 | 166 | 0.0 | 4.3 | 0.00 | 0.00 | 0.00 | 51 | 1017.1 |
| 20260506163807 | 87 | 94 | 2.6 | 5.2 | 0.00 | 0.00 | 0.00 | 49 | 1017.2 |
| 20260506163301 | 87 | 225 | 2.6 | 6.1 | 0.00 | 0.00 | 0.00 | 52 | 1017.5 |
| 20260506162757 | 87 | 257 | 0.9 | 5.2 | 0.00 | 0.00 | 0.00 | 52 | 1017.4 |
| 20260506162255 | 85 | 225 | 0.9 | 5.2 | 0.00 | 0.00 | 0.00 | 52 | 1017.7 |
| 20260506161747 | 86 | 235 | 6.1 | 7.0 | 0.00 | 0.00 | 0.00 | 53 | 1017.7 |
| 20260506161244 | 87 | 213 | 2.6 | 8.7 | 0.00 | 0.00 | 0.00 | 54 | 1017.5 |
| 20260506160741 | 86 | 40 | 0.0 | 3.5 | 0.00 | 0.00 | 0.00 | 53 | 1017.5 |
| 20260506160238 | 86 | 276 | 2.6 | 4.3 | 0.00 | 0.00 | 0.00 | 55 | 1017.5 |
| 20260506155736 | 85 | 228 | 1.7 | 7.8 | 0.00 | 0.00 | 0.00 | 55 | 1017.7 |
| 20260506155233 | 84 | 228 | 2.6 | 8.7 | 0.00 | 0.00 | 0.00 | 56 | 1017.7 |
| 20260506153346 | 84 | 269 | 2.6 | 6.1 | 0.00 | 0.00 | 0.00 | 56 | 1017.6 |
| 20260506152843 | 83 | 240 | 3.5 | 7.8 | 0.00 | 0.00 | 0.00 | 56 | 1017.8 |
| 20260506152340 | 86 | 261 | 1.7 | 6.1 | 0.00 | 0.00 | 0.00 | 54 | 1017.5 |
| 20260506151839 | 85 | 318 | 0.9 | 3.5 | 0.00 | 0.00 | 0.00 | 52 | 1017.4 |
| 20260506151335 | 84 | 9 | 1.7 | 4.3 | 0.00 | 0.00 | 0.00 | 57 | 1017.3 |
| 20260506150832 | 84 | 247 | 0.9 | 4.3 | 0.00 | 0.00 | 0.00 | 56 | 1017.5 |
| 20260506150329 | 83 | 260 | 1.7 | 7.8 | 0.00 | 0.00 | 0.00 | 57 | 1017.4 |
| 20260506145826 | 83 | 274 | 0.0 | 5.2 | 0.00 | 0.00 | 0.00 | 57 | 1017.4 |
| 20260506145322 | 83 | 66 | 0.0 | 8.7 | 0.00 | 0.00 | 0.00 | 58 | 1017.3 |
| 20260506144820 | 83 | 260 | 0.9 | 3.5 | 0.00 | 0.00 | 0.00 | 57 | 1017.4 |
| 20260506144316 | 82 | 161 | 2.6 | 5.2 | 0.00 | 0.00 | 0.00 | 57 | 1017.4 |
| 20260506143815 | 82 | 8 | 0.0 | 9.6 | 0.00 | 0.00 | 0.00 | 59 | 1017.6 |
| 20260506143311 | 84 | 254 | 0.0 | 4.3 | 0.00 | 0.00 | 0.00 | 60 | 1017.4 |
| 20260506142810 | 83 | 61 | 0.0 | 4.3 | 0.00 | 0.00 | 0.00 | 60 | 1017.2 |
| 20260506142307 | 83 | 76 | 0.9 | 4.3 | 0.00 | 0.00 | 0.00 | 59 | 1017.3 |
| 20260506141805 | 82 | 69 | 1.7 | 4.3 | 0.00 | 0.00 | 0.00 | 62 | 1017.3 |
| 20260506141303 | 81 | 324 | 1.7 | 5.2 | 0.00 | 0.00 | 0.00 | 62 | 1017.3 |
| 20260506140801 | 80 | 315 | 2.6 | 5.2 | 0.00 | 0.00 | 0.00 | 64 | 1017.2 |
| 20260506140257 | 80 | 222 | 1.7 | 5.2 | 0.00 | 0.00 | 0.00 | 63 | 1017.2 |
| 20260506135754 | 81 | 204 | 0.9 | 3.5 | 0.00 | 0.00 | 0.00 | 65 | 1017.1 |
| 20260506135250 | 80 | 271 | 4.3 | 4.3 | 0.00 | 0.00 | 0.00 | 65 | 1017.1 |
| 20260506134747 | 80 | 231 | 2.6 | 4.3 | 0.00 | 0.00 | 0.00 | 67 | 1017.3 |
| 20260506134244 | 81 | 304 | 0.9 | 2.6 | 0.00 | 0.00 | 0.00 | 68 | 1017.4 |
| 20260506133741 | 79 | 163 | 0.0 | 4.3 | 0.00 | 0.00 | 0.00 | 70 | 1017.4 |
| 20260506133238 | 78 | 162 | 0.9 | 4.3 | 0.00 | 0.00 | 0.00 | 72 | 1017.5 |
| 20260506132734 | 78 | 232 | 1.7 | 4.3 | 0.00 | 0.00 | 0.00 | 71 | 1017.3 |
| 20260506132232 | 78 | 295 | 1.7 | 2.6 | 0.00 | 0.00 | 0.00 | 72 | 1017.1 |
| 20260506131730 | 76 | 71 | 0.0 | 2.6 | 0.00 | 0.00 | 0.00 | 74 | 1017.4 |
| 20260506131225 | 75 | 234 | 1.7 | 4.3 | 0.00 | 0.00 | 0.00 | 75 | 1017.1 |
| 20260506130722 | 75 | 332 | 0.9 | 4.3 | 0.00 | 0.00 | 0.00 | 76 | 1017.3 |
| 20260506130219 | 74 | 337 | 0.0 | 2.6 | 0.00 | 0.00 | 0.00 | 76 | 1017.2 |
| 20260506125717 | 74 | 246 | 0.0 | 4.3 | 0.00 | 0.00 | 0.00 | 76 | 1017.4 |
| 20260506125215 | 74 | 157 | 0.9 | 1.7 | 0.00 | 0.00 | 0.00 | 77 | 1017.4 |
| 20260506124713 | 72 | 192 | 0.0 | 2.6 | 0.00 | 0.00 | 0.00 | 80 | 1017.1 |
| 20260506124211 | 71 | 229 | 0.9 | 2.6 | 0.00 | 0.00 | 0.00 | 83 | 1017.1 |
| 20260506123708 | 69 | 283 | 1.7 | 3.5 | 0.00 | 0.00 | 0.00 | 88 | 1017.2 |
| 20260506123207 | 68 | 132 | 0.0 | 2.6 | 0.00 | 0.00 | 0.00 | 91 | 1017.3 |
| 20260506122703 | 67 | 45 | 0.0 | 2.6 | 0.00 | 0.00 | 0.00 | 91 | 1017.1 |
| 20260506122200 | 66 | 49 | 0.9 | 1.7 | 0.00 | 0.00 | 0.00 | 91 | 1017.0 |
| 20260506121658 | 65 | 91 | 0.0 | 1.7 | 0.00 | 0.00 | 0.00 | 91 | 1017.0 |
| 20260506121154 | 64 | 77 | 1.7 | 1.7 | 0.00 | 0.00 | 0.00 | 91 | 1016.8 |
| 20260506120652 | 64 | 57 | 0.0 | 1.7 | 0.00 | 0.00 | 0.00 | 91 | 1016.8 |
| 20260506120149 | 63 | 40 | 0.0 | 0.9 | 0.00 | 0.00 | 0.00 | 91 | 1016.7 |
| 20260506115648 | 63 | 74 | 0.0 | 1.7 | 0.00 | 0.00 | 0.00 | 91 | 1016.6 |
| 20260506115145 | 63 | 53 | 0.9 | 1.7 | 0.00 | 0.00 | 0.00 | 91 | 1016.7 |
| 20260506114642 | 63 | 103 | 0.0 | 1.7 | 0.00 | 0.00 | 0.00 | 91 | 1016.6 |
| 20260506114140 | 63 | 132 | 0.0 | 0.9 | 0.00 | 0.00 | 0.00 | 91 | 1016.7 |
| 20260506113639 | 62 | 98 | 0.0 | 0.9 | 0.00 | 0.00 | 0.00 | 91 | 1016.6 |
| 20260506113136 | 61 | 139 | 0.0 | 0.9 | 0.00 | 0.00 | 0.00 | 91 | 1016.6 |
| 20260506112631 | 61 | 337 | 0.0 | 0.9 | 0.00 | 0.00 | 0.00 | 91 | 1016.6 |
| 20260506112129 | 60 | 4 | 0.0 | 0.0 | 0.00 | 0.00 | 0.00 | 91 | 1016.8 |
| 20260506111627 | 60 | 16 | 0.0 | 1.7 | 0.00 | 0.00 | 0.00 | 91 | 1016.5 |
| 20260506111124 | 60 | 269 | 0.0 | 0.0 | 0.00 | 0.00 | 0.00 | 91 | 1016.5 |
| 20260506110622 | 60 | 209 | 0.0 | 0.0 | 0.00 | 0.00 | 0.00 | 91 | 1016.4 |
| 20260506110119 | 59 | 209 | 0.0 | 0.0 | 0.00 | 0.00 | 0.00 | 91 | 1016.3 |
| 20260506105615 | 59 | 180 | 0.0 | 0.0 | 0.00 | 0.00 | 0.00 | 91 | 1016.1 |
| 20260506105112 | 59 | 180 | 0.0 | 0.9 | 0.00 | 0.00 | 0.00 | 91 | 1016.1 |
| 20260506104611 | 59 | 187 | 0.0 | 0.0 | 0.00 | 0.00 | 0.00 | 91 | 1016.1 |
| 20260506104108 | 59 | 10 | 0.0 | 0.0 | 0.00 | 0.00 | 0.00 | 91 | 1016.2 |
| 20260506103605 | 59 | 10 | 0.0 | 0.9 | 0.00 | 0.00 | 0.00 | 91 | 1016.2 |
| 20260506103102 | 59 | 351 | 0.0 | 0.9 | 0.00 | 0.00 | 0.00 | 91 | 1016.2 |
| 20260506102600 | 59 | 17 | 0.0 | 0.0 | 0.00 | 0.00 | 0.00 | 91 | 1016.1 |
| 20260506102057 | 59 | 17 | 0.0 | 0.0 | 0.00 | 0.00 | 0.00 | 91 | 1016.3 |
| 20260506101553 | 59 | 149 | 0.0 | 0.0 | 0.00 | 0.00 | 0.00 | 91 | 1016.3 |
| 20260506101051 | 59 | 17 | 0.0 | 0.0 | 0.00 | 0.00 | 0.00 | 91 | 1016.0 |
| 20260506100549 | 59 | 10 | 0.0 | 0.9 | 0.00 | 0.00 | 0.00 | 91 | 1016.1 |
| 20260506100047 | 59 | 109 | 0.0 | 0.9 | 0.00 | 0.00 | 0.00 | 91 | 1016.1 |
| 20260506095545 | 59 | 337 | 0.0 | 0.0 | 0.00 | 0.00 | 0.00 | 91 | 1016.1 |
| 20260506095041 | 59 | 337 | 0.0 | 0.0 | 0.00 | 0.00 | 0.00 | 91 | 1016.2 |
| 20260506094539 | 59 | 268 | 0.0 | 0.9 | 0.00 | 0.00 | 0.00 | 91 | 1016.1 |
| 20260506094037 | 59 | 0 | 0.0 | 0.0 | 0.00 | 0.00 | 0.00 | 91 | 1016.0 |
| 20260506093535 | 60 | 332 | 0.0 | 0.9 | 0.00 | 0.00 | 0.00 | 91 | 1016.1 |
| 20260506093032 | 59 | 10 | 0.0 | 0.0 | 0.00 | 0.00 | 0.00 | 91 | 1016.1 |
| 20260506092531 | 59 | 10 | 0.0 | 0.0 | 0.00 | 0.00 | 0.00 | 91 | 1016.1 |
| 20260506092027 | 60 | 227 | 0.0 | 0.9 | 0.00 | 0.00 | 0.00 | 91 | 1015.9 |
| 20260506091526 | 59 | 7 | 0.0 | 0.0 | 0.00 | 0.00 | 0.00 | 91 | 1016.0 |
| 20260506091022 | 60 | 7 | 0.0 | 0.0 | 0.00 | 0.00 | 0.00 | 91 | 1015.9 |
| 20260506090520 | 60 | 7 | 0.0 | 0.0 | 0.00 | 0.00 | 0.00 | 91 | 1015.8 |
| 20260506090015 | 60 | 7 | 0.0 | 0.0 | 0.00 | 0.00 | 0.00 | 91 | 1015.7 |
| 20260506085513 | 60 | 7 | 0.0 | 0.0 | 0.00 | 0.00 | 0.00 | 91 | 1015.9 |
| 20260506085009 | 60 | 7 | 0.0 | 0.0 | 0.00 | 0.00 | 0.00 | 91 | 1015.8 |
| 20260506084506 | 60 | 47 | 0.0 | 0.9 | 0.00 | 0.00 | 0.00 | 91 | 1015.9 |
| 20260506084002 | 60 | 240 | 0.0 | 0.0 | 0.00 | 0.00 | 0.00 | 91 | 1016.0 |
| 20260506083459 | 60 | 22 | 0.0 | 0.0 | 0.00 | 0.00 | 0.00 | 91 | 1016.0 |
| 20260506082956 | 60 | 0 | 0.0 | 0.0 | 0.00 | 0.00 | 0.00 | 91 | 1016.1 |
| 20260506082453 | 60 | 321 | 0.0 | 0.0 | 0.00 | 0.00 | 0.00 | 91 | 1015.8 |
| 20260506081949 | 60 | 114 | 0.0 | 0.0 | 0.00 | 0.00 | 0.00 | 91 | 1015.9 |
| 20260506081448 | 60 | 114 | 0.0 | 0.0 | 0.00 | 0.00 | 0.00 | 91 | 1015.9 |
| 20260506080944 | 60 | 29 | 0.0 | 0.0 | 0.00 | 0.00 | 0.00 | 91 | 1016.0 |
| 20260506080441 | 60 | 215 | 0.0 | 0.9 | 0.00 | 0.00 | 0.00 | 91 | 1015.7 |
| 20260506073425 | 60 | 127 | 0.0 | 0.0 | 0.00 | 0.00 | 0.00 | 91 | 1015.4 |
| 20260506072923 | 60 | 127 | 0.0 | 0.0 | 0.00 | 0.00 | 0.00 | 91 | 1015.7 |
| 20260506072420 | 60 | 22 | 0.0 | 1.7 | 0.00 | 0.00 | 0.00 | 91 | 1015.4 |
| 20260506071917 | 60 | 254 | 0.0 | 0.9 | 0.00 | 0.00 | 0.00 | 91 | 1015.6 |
| 20260506071415 | 60 | 22 | 0.0 | 0.0 | 0.00 | 0.00 | 0.00 | 91 | 1015.5 |
| 20260506070912 | 60 | 22 | 0.0 | 0.0 | 0.00 | 0.00 | 0.00 | 91 | 1015.7 |
| 20260506070409 | 60 | 22 | 0.0 | 0.0 | 0.00 | 0.00 | 0.00 | 91 | 1015.9 |
| 20260506062346 | 60 | 345 | 0.0 | 0.9 | 0.00 | 0.00 | 0.00 | 91 | 1016.2 |
| 20260506061842 | 60 | 355 | 0.0 | 0.9 | 0.00 | 0.00 | 0.00 | 91 | 1016.5 |
| 20260506061339 | 60 | 286 | 0.0 | 0.9 | 0.00 | 0.00 | 0.00 | 91 | 1016.6 |
| 20260506060837 | 60 | 321 | 0.0 | 0.0 | 0.00 | 0.00 | 0.00 | 91 | 1016.6 |
| 20260506060335 | 60 | 197 | 0.0 | 0.0 | 0.00 | 0.00 | 0.00 | 91 | 1016.5 |
| 20260506051306 | 60 | 282 | 0.0 | 0.9 | 0.00 | 0.00 | 0.00 | 91 | 1016.9 |
| 20260506050804 | 60 | 300 | 0.0 | 0.9 | 0.00 | 0.00 | 0.00 | 91 | 1016.9 |
| 20260506050302 | 60 | 215 | 0.0 | 0.9 | 0.00 | 0.00 | 0.00 | 91 | 1016.9 |
| 20260506044752 | 60 | 161 | 0.0 | 0.9 | 0.00 | 0.00 | 0.00 | 91 | 1017.0 |
| 20260506044249 | 60 | 22 | 0.0 | 0.9 | 0.00 | 0.00 | 0.00 | 91 | 1017.1 |
| 20260506043747 | 60 | 89 | 0.0 | 0.0 | 0.00 | 0.00 | 0.00 | 91 | 1017.2 |
| 20260506043244 | 60 | 89 | 0.0 | 0.0 | 0.00 | 0.00 | 0.00 | 90 | 1017.3 |
| 20260506042743 | 61 | 89 | 0.0 | 0.0 | 0.00 | 0.00 | 0.00 | 90 | 1017.0 |
| 20260506042241 | 61 | 89 | 0.0 | 0.0 | 0.00 | 0.00 | 0.00 | 90 | 1017.2 |
| 20260506041739 | 61 | 89 | 0.0 | 0.0 | 0.00 | 0.00 | 0.00 | 90 | 1017.2 |
| 20260506041235 | 61 | 89 | 0.0 | 0.0 | 0.00 | 0.00 | 0.00 | 90 | 1017.1 |
| 20260506040733 | 61 | 89 | 0.0 | 0.0 | 0.00 | 0.00 | 0.00 | 89 | 1017.2 |
| 20260506040230 | 61 | 89 | 0.0 | 0.0 | 0.00 | 0.00 | 0.00 | 89 | 1017.2 |
| 20260506035726 | 62 | 89 | 0.0 | 0.0 | 0.00 | 0.00 | 0.00 | 89 | 1017.2 |
| 20260506035224 | 62 | 89 | 0.0 | 0.0 | 0.00 | 0.00 | 0.00 | 89 | 1017.3 |
| 20260506034720 | 62 | 89 | 0.0 | 0.0 | 0.00 | 0.00 | 0.00 | 89 | 1017.4 |
| 20260506034218 | 62 | 215 | 0.0 | 0.0 | 0.00 | 0.00 | 0.00 | 88 | 1017.4 |
| 20260506033715 | 62 | 282 | 0.0 | 0.0 | 0.00 | 0.00 | 0.00 | 88 | 1017.4 |
| 20260506033212 | 62 | 282 | 0.0 | 0.0 | 0.00 | 0.00 | 0.00 | 88 | 1017.1 |
| 20260506032709 | 62 | 282 | 0.0 | 0.0 | 0.00 | 0.00 | 0.00 | 87 | 1017.4 |
| 20260506032206 | 62 | 282 | 0.0 | 0.0 | 0.00 | 0.00 | 0.00 | 87 | 1017.4 |
| 20260506031702 | 62 | 282 | 0.0 | 0.0 | 0.00 | 0.00 | 0.00 | 86 | 1017.4 |
| 20260506031200 | 62 | 282 | 0.0 | 0.0 | 0.00 | 0.00 | 0.00 | 86 | 1017.4 |
| 20260506030658 | 62 | 282 | 0.0 | 0.0 | 0.00 | 0.00 | 0.00 | 85 | 1017.3 |
| 20260506030155 | 63 | 282 | 0.0 | 0.0 | 0.00 | 0.00 | 0.00 | 85 | 1017.4 |
| 20260506025646 | 63 | 22 | 0.0 | 0.9 | 0.00 | 0.00 | 0.00 | 84 | 1017.3 |
| 20260506025142 | 63 | 42 | 0.0 | 0.9 | 0.00 | 0.00 | 0.00 | 84 | 1017.2 |
| 20260506024640 | 63 | 139 | 0.0 | 0.0 | 0.00 | 0.00 | 0.00 | 84 | 1017.0 |
| 20260506024136 | 63 | 139 | 0.0 | 0.0 | 0.00 | 0.00 | 0.00 | 83 | 1017.0 |
| 20260506023632 | 64 | 139 | 0.0 | 0.0 | 0.00 | 0.00 | 0.00 | 82 | 1017.1 |
| 20260506023129 | 64 | 139 | 0.0 | 0.0 | 0.00 | 0.00 | 0.00 | 82 | 1017.1 |
| 20260506022627 | 64 | 139 | 0.0 | 0.0 | 0.00 | 0.00 | 0.00 | 81 | 1016.9 |
| 20260506022124 | 64 | 139 | 0.0 | 0.0 | 0.00 | 0.00 | 0.00 | 80 | 1016.9 |
| 20260506021622 | 65 | 139 | 0.0 | 0.0 | 0.00 | 0.00 | 0.00 | 78 | 1016.8 |
| 20260506021119 | 65 | 37 | 0.0 | 1.7 | 0.00 | 0.00 | 0.00 | 78 | 1016.8 |
| 20260506020616 | 65 | 209 | 0.0 | 0.0 | 0.00 | 0.00 | 0.00 | 77 | 1016.7 |
| 20260506020113 | 66 | 120 | 0.0 | 0.0 | 0.00 | 0.00 | 0.00 | 75 | 1016.7 |
| 20260506015611 | 66 | 248 | 1.7 | 2.6 | 0.00 | 0.00 | 0.00 | 75 | 1016.6 |
| 20260506015107 | 67 | 40 | 0.0 | 0.9 | 0.00 | 0.00 | 0.00 | 74 | 1016.6 |
| 20260506014605 | 67 | 260 | 0.9 | 1.7 | 0.00 | 0.00 | 0.00 | 73 | 1016.4 |
| 20260506014100 | 67 | 17 | 0.0 | 1.7 | 0.00 | 0.00 | 0.00 | 73 | 1016.5 |
| 20260506013559 | 67 | 60 | 0.0 | 1.7 | 0.00 | 0.00 | 0.00 | 72 | 1016.5 |
| 20260506013055 | 68 | 307 | 0.0 | 0.9 | 0.00 | 0.00 | 0.00 | 71 | 1016.5 |
| 20260506012551 | 68 | 282 | 0.0 | 2.6 | 0.00 | 0.00 | 0.00 | 71 | 1016.3 |
| 20260506012048 | 68 | 10 | 0.0 | 1.7 | 0.00 | 0.00 | 0.00 | 71 | 1016.3 |
| 20260506011546 | 68 | 74 | 0.0 | 1.7 | 0.00 | 0.00 | 0.00 | 71 | 1016.5 |
| 20260506011042 | 68 | 54 | 0.9 | 1.7 | 0.00 | 0.00 | 0.00 | 71 | 1016.5 |
| 20260506010542 | 68 | 51 | 0.0 | 0.9 | 0.00 | 0.00 | 0.00 | 70 | 1016.2 |
| 20260506010038 | 68 | 250 | 0.0 | 0.9 | 0.00 | 0.00 | 0.00 | 70 | 1016.4 |
| 20260506005535 | 69 | 23 | 0.0 | 0.9 | 0.00 | 0.00 | 0.00 | 70 | 1016.3 |
| 20260506005031 | 69 | 0 | 0.0 | 1.7 | 0.00 | 0.00 | 0.00 | 69 | 1016.3 |
| 20260506004529 | 69 | 98 | 0.0 | 1.7 | 0.00 | 0.00 | 0.00 | 70 | 1016.2 |
| 20260506004025 | 69 | 340 | 0.0 | 1.7 | 0.00 | 0.00 | 0.00 | 69 | 1016.4 |